Location: Newark
(43.0117°N, 7.5572°W)
Time: 21:00:06
(UTC+00:00)

X-37B - Pass Details

Date: 06 October 2020
Orbit: 382 x 392 km, 45.0° (Epoch: 15 October)

Event Time Altitude Azimuth Distance (km) Brightness Sun altitude
Rises 20:00:20 0° 269° (W) 2,264 5.8 -22.3°
Reaches altitude 10° 20:02:25 10° 273° (W) 1,408 4.5 -22.7°
Enters shadow 20:04:39 39° 294° (WNW) 593 2.0 -23.1°
